LGR888 BIRK-BIKF

Flight info

Callsign LGR888
Flight time 0h 8m
Altitude 4000
Route BIRK BIKF
Aircraft R66/L-V/N

Departure

Time 2026-04-21 20:45
Airport Reykjavík Domestic Airport (BIRK)

Arrival

Time 2026-04-21 20:53
Airport Keflavik International Airport (BIKF)
Time Latitude Longitude Altitude Speed Heading
2026-04-21 20:31 64.12417 -21.93207 7 ft 0 kts 354°
2026-04-21 20:38 64.12422 -21.93205 13 ft 5 kts 321°
2026-04-21 20:38 64.12438 -21.93258 11 ft 5 kts 296°
2026-04-21 20:39 64.12439 -21.93362 9 ft 6 kts 278°
2026-04-21 20:39 64.12470 -21.93421 4 ft 8 kts 14°
2026-04-21 20:39 64.12525 -21.93432 11 ft 4 kts 350°
2026-04-21 20:39 64.12616 -21.93425 49 ft 29 kts 335°
2026-04-21 20:40 64.12862 -21.93528 83 ft 41 kts 344°
2026-04-21 20:40 64.13134 -21.93543 43 ft 28 kts 341°
2026-04-21 20:40 64.13207 -21.93531 30 ft 1 kts 356°
2026-04-21 20:40 64.13226 -21.93543 31 ft 4 kts 345°
2026-04-21 20:41 64.13258 -21.93569 31 ft 5 kts 353°
2026-04-21 20:41 64.13291 -21.93581 32 ft 4 kts
2026-04-21 20:41 64.13329 -21.93591 33 ft 4 kts
2026-04-21 20:41 64.13361 -21.93597 34 ft 3 kts 360°
2026-04-21 20:42 64.13397 -21.93594 35 ft 5 kts
2026-04-21 20:42 64.13436 -21.93606 36 ft 6 kts 355°
2026-04-21 20:42 64.13487 -21.93613 37 ft 7 kts 356°
2026-04-21 20:42 64.13528 -21.93626 36 ft 6 kts 353°
2026-04-21 20:43 64.13561 -21.93653 38 ft 4 kts 338°
2026-04-21 20:43 64.13576 -21.93672 36 ft 1 kts 320°
2026-04-21 20:43 64.13577 -21.93675 36 ft 0 kts 323°
2026-04-21 20:43 64.13600 -21.93727 41 ft 13 kts 306°
2026-04-21 20:44 64.13409 -21.93836 56 ft 66 kts 172°
2026-04-21 20:44 64.12822 -21.93698 44 ft 102 kts 171°
2026-04-21 20:44 64.12088 -21.93756 57 ft 107 kts 184°
2026-04-21 20:44 64.11413 -21.94342 174 ft 101 kts 207°
2026-04-21 20:45 64.10913 -21.95429 330 ft 97 kts 231°
2026-04-21 20:45 64.10672 -21.96781 518 ft 91 kts 257°
2026-04-21 20:45 64.10718 -21.98168 719 ft 87 kts 284°
2026-04-21 20:45 64.11031 -21.99325 959 ft 84 kts 302°
2026-04-21 20:46 64.11103 -22.00575 1253 ft 81 kts 264°
2026-04-21 20:46 64.10994 -22.01824 1537 ft 80 kts 259°
2026-04-21 20:46 64.10838 -22.03022 1817 ft 79 kts 257°
2026-04-21 20:46 64.10652 -22.04190 2089 ft 79 kts 261°
2026-04-21 20:47 64.10458 -22.05352 2360 ft 77 kts 259°
2026-04-21 20:47 64.10255 -22.06472 2625 ft 77 kts 257°
2026-04-21 20:47 64.10016 -22.07742 2710 ft 99 kts 254°
2026-04-21 20:47 64.09705 -22.09289 2712 ft 113 kts 250°
2026-04-21 20:48 64.09354 -22.10943 2718 ft 117 kts 249°
2026-04-21 20:48 64.08989 -22.12628 2742 ft 119 kts 249°
2026-04-21 20:48 64.08619 -22.14332 2713 ft 118 kts 248°
2026-04-21 20:48 64.08255 -22.15989 2721 ft 115 kts 248°
2026-04-21 20:49 64.07901 -22.17618 2721 ft 115 kts 248°
2026-04-21 20:49 64.07549 -22.19240 2722 ft 114 kts 248°
2026-04-21 20:49 64.07192 -22.20885 2721 ft 114 kts 248°
2026-04-21 20:49 64.06840 -22.22500 2722 ft 114 kts 248°
2026-04-21 20:50 64.06485 -22.24130 2723 ft 114 kts 248°
2026-04-21 20:50 64.06135 -22.25736 2719 ft 114 kts 248°
2026-04-21 20:50 64.05773 -22.27395 2681 ft 116 kts 248°
2026-04-21 20:50 64.05417 -22.29019 2648 ft 114 kts 248°
2026-04-21 20:51 64.05064 -22.30626 2609 ft 113 kts 248°
2026-04-21 20:51 64.04715 -22.32227 2567 ft 110 kts 245°
2026-04-21 20:51 64.04380 -22.33733 2525 ft 105 kts 247°
2026-04-21 20:51 64.04051 -22.35217 2480 ft 104 kts 246°
2026-04-21 20:52 64.03725 -22.36707 2412 ft 104 kts 246°
2026-04-21 20:52 64.03401 -22.38148 2188 ft 102 kts 245°
2026-04-21 20:52 64.03081 -22.39554 1913 ft 98 kts 245°
2026-04-21 20:52 64.02788 -22.40857 1742 ft 86 kts 246°
2026-04-21 20:53 64.02545 -22.41950 1717 ft 68 kts 246°
2026-04-21 20:53 64.02355 -22.42806 1725 ft 55 kts 248°
2026-04-21 20:53 64.02190 -22.43557 1689 ft 50 kts 249°
2026-04-21 20:53 64.02039 -22.44229 1655 ft 45 kts 250°
2026-04-21 20:54 64.01904 -22.44842 1617 ft 40 kts 250°
2026-04-21 20:54 64.01754 -22.45370 1569 ft 40 kts 235°
2026-04-21 20:54 64.01555 -22.45948 1489 ft 65 kts 246°
2026-04-21 20:54 64.01239 -22.47211 939 ft 114 kts 238°
2026-04-21 20:55 64.00756 -22.48636 619 ft 113 kts 227°
2026-04-21 20:55 64.00194 -22.49983 190 ft 116 kts 222°
2026-04-21 20:55 63.99704 -22.51067 200 ft 81 kts 223°
2026-04-21 20:55 63.99456 -22.52028 127 ft 63 kts 256°
2026-04-21 20:56 63.99527 -22.52964 127 ft 54 kts 290°
2026-04-21 20:56 63.99696 -22.53676 151 ft 55 kts 294°
2026-04-21 20:56 63.99889 -22.54503 168 ft 63 kts 293°
2026-04-21 20:56 64.00037 -22.55366 288 ft 49 kts 291°
2026-04-21 20:57 64.00000 -22.56017 398 ft 45 kts 239°
2026-04-21 20:57 63.99677 -22.56494 351 ft 70 kts 209°
2026-04-21 20:57 63.99307 -22.57230 349 ft 68 kts 245°
2026-04-21 20:57 63.99174 -22.58309 291 ft 71 kts 266°
2026-04-21 20:58 63.99175 -22.59462 197 ft 72 kts 271°
2026-04-21 20:58 63.99174 -22.60395 168 ft 38 kts 266°
2026-04-21 20:58 63.99173 -22.60777 152 ft 17 kts 309°
2026-04-21 20:58 63.99165 -22.61042 147 ft 12 kts 299°
2026-04-21 20:59 63.99166 -22.61165 143 ft 5 kts 312°
2026-04-21 20:59 63.99177 -22.61261 150 ft 6 kts 320°
2026-04-21 20:59 63.99237 -22.61388 212 ft 14 kts 328°
2026-04-21 20:59 63.99355 -22.61386 255 ft 28 kts 328°
2026-04-21 21:00 63.99501 -22.61754 282 ft 36 kts 237°
2026-04-21 21:00 63.99291 -22.62081 215 ft 46 kts 213°
2026-04-21 21:00 63.99192 -22.62603 188 ft 22 kts 339°
2026-04-21 21:00 63.99268 -22.62706 141 ft 10 kts
2026-04-21 21:01 63.99320 -22.62713 137 ft 7 kts 24°
2026-04-21 21:01 63.99336 -22.62694 142 ft 1 kts 16°
2026-04-21 21:01 63.99355 -22.62712 143 ft 6 kts 241°
2026-04-21 21:01 63.99294 -22.62744 143 ft 11 kts 199°
2026-04-21 21:02 63.99185 -22.62721 159 ft 24 kts 205°
2026-04-21 21:02 63.98998 -22.62803 162 ft 13 kts 213°
2026-04-21 21:02 63.98915 -22.62836 143 ft 11 kts 227°
2026-04-21 21:02 63.98739 -22.63008 174 ft 41 kts 200°
2026-04-21 21:03 63.98385 -22.63094 187 ft 54 kts 141°
2026-04-21 21:03 63.98277 -22.62532 264 ft 29 kts 327°
2026-04-21 21:03 63.98571 -22.62892 216 ft 61 kts 329°
2026-04-21 21:03 63.99010 -22.62786 251 ft 63 kts 20°
2026-04-21 21:04 63.99261 -22.62338 258 ft 37 kts 77°
2026-04-21 21:04 63.99376 -22.61910 194 ft 28 kts 344°
2026-04-21 21:04 63.99466 -22.61723 141 ft 6 kts 157°
2026-04-21 21:04 63.99455 -22.61674 140 ft 5 kts 215°
2026-04-21 21:05 63.99432 -22.61620 144 ft 2 kts 239°
2026-04-21 21:05 63.99396 -22.61617 138 ft 8 kts 204°
2026-04-21 21:05 63.99392 -22.61617 138 ft 5 kts 159°
2026-04-21 21:05 63.99402 -22.61504 171 ft 13 kts 279°
2026-04-21 21:06 63.99433 -22.61600 164 ft 7 kts 199°
2026-04-21 21:06 63.99407 -22.61615 145 ft 3 kts 204°
2026-04-21 21:06 63.99394 -22.61621 137 ft 0 kts 188°